Regional Weather Roundup
Issued by NWS

Home | Current Version | Previous Version | Text Only | Print | Product List | Glossary Off
Versions: 1 2 3 4 5 6 7 8 9 10 11 12 13 14 15 16 17 18 19 20 21 22 23 24 25 26 27 28 29 30 31 32 33 34 35 36 37 38 39 40 41 42 43 44 45 46 47 48 49 50

000
ASUS43 KDMX 222201
RWRIA

WEATHER ROUNDUP FOR IOWA
NATIONAL WEATHER SERVICE DES MOINES IA
500 PM CDT TUE MAY 22 2018

NOTE: "FAIR" INDICATES FEW OR NO CLOUDS BELOW 12,000 FEET WITH NO
SIGNIFICANT WEATHER AND/OR OBSTRUCTIONS TO VISIBILITY.

* - THESE STATIONS ARE NOT NWS STATIONS...THUS NOT UNDER NWS
QUALITY CONTROL.  THEY ALSO DO NOT REPORT WEATHER SUCH
AS PRECIPITATION OR FOG.

IAZ001>003-012>014-020>022-031>034-043>046-222300-
   NORTHWEST IOWA

CITY           SKY/WX    TMP DP  RH WIND       PRES   REMARKS
CARROLL *      PTSUNNY  N/A N/A N/A SE9G16    29.99S
CHEROKEE *     MOSUNNY   79  64  59 S12       29.97F HX  81
DENISON *      MOSUNNY   79  64  61 S9        29.99F HX  81
LE MARS *      PTSUNNY   79  66  65 SE12      29.95  HX  81
ORANGE CITY *  MOSUNNY   81  63  54 SE9       29.97S HX  82
SHELDON *      CLOUDY    79  64  61 S13       29.96S HX  81
SIOUX CITY     CLOUDY    78  67  68 SE10      29.93F HX  80
SPENCER        MOSUNNY   81  62  52 S10       29.98F HX  82
STORM LAKE *   MOSUNNY   79  61  53 S14       29.99  HX  80
$$

IAZ055>058-069>071-079>083-090>094-222300-
   SOUTHWEST IOWA

CITY           SKY/WX    TMP DP  RH WIND       PRES   REMARKS
ATLANTIC *     CLOUDY    73  66  78 E8        29.98F
AUDUBON *      CLOUDY    75  66  73 SE9       30.00S
CLARINDA *     MOSUNNY   84  61  45 S12       29.99  HX  84
COUNCIL BLFS * MOSUNNY   79  72  78 S15G22    29.95F HX  82
CRESTON *      MOSUNNY   79  66  65 SE8       30.01F HX  81
HARLAN  *      MOSUNNY   77  66  69 SE13      30.00F
LAMONI         MOSUNNY   81  63  54 CALM      30.00S HX  82
RED OAK *      PTSUNNY   82  64  54 SE8       29.97  HX  84
SHENANDOAH *   CLOUDY    84  63  48 S12G21    29.96  HX  85
$$

IAZ047>049-059>061-072>074-084-222300-
   CENTRAL IOWA

CITY           SKY/WX    TMP DP  RH WIND       PRES   REMARKS
AMES           MOSUNNY   78  65  63 SE8       30.01S HX  80
ANKENY *       CLOUDY    77  63  61 SW9       30.02
BOONE *        PTSUNNY   79  63  57 SE6G14    30.00S HX  80
CHARITON *     MOSUNNY   79  63  57 CALM      30.01F HX  80
DES MOINES     CLOUDY    77  62  59 S9        30.01S
GRINNELL*      MOSUNNY   76  61  59 CALM      30.04S
KNOXVILLE *    MOSUNNY   79  61  53 CALM      30.01S HX  80
MARSHALLTOWN   MOSUNNY   77  63  61 SE5       30.01S
NEWTON *       MOSUNNY   77  64  65 S8        30.02
PELLA *        MOSUNNY   80  61  52 W3        30.03S HX  81
PERRY *        PTSUNNY   78  61  55 SE10      30.01R
$$

IAZ004>006-015-016-023>025-035-036-222300-
   NORTH CENTRAL IOWA

CITY           SKY/WX    TMP DP  RH WIND       PRES   REMARKS
ALGONA *       MOSUNNY   79  61  53 VRB6      30.00F HX  80
CLARION *      MOSUNNY   79  59  50 SE6       30.00F HX  80
ESTHERVILLE    PTSUNNY   77  60  55 SE12      29.99S
FORT DODGE *   PTSUNNY   79  62  56 SE6       30.00  HX  80
MASON CITY     MOSUNNY   80  58  46 S8        30.02S HX  80
FOREST CITY *  FAIR      79  57  47 SW5       30.01S HX  80
WEBSTER CITY * MOSUNNY   79  61  53 SE7       29.98S HX  80
IOWA FALLS *   FAIR      77  62  58 S5        30.03S
$$

IAZ007>011-017>019-026>030-037>042-050>054-066-222300-
   NORTHEAST IOWA

CITY           SKY/WX    TMP DP  RH WIND       PRES   REMARKS
CEDAR RAPIDS   FAIR      77  59  53 VRB5      30.02S
CHARLES CITY * FAIR      77  57  50 VRB7      30.03S
CLINTON *        N/A    N/A N/A N/A N3        30.05F
DECORAH *      PTSUNNY   70  59  68 CALM      30.05S
DUBUQUE        FAIR      72  58  61 VRB3      30.05S
MONTICELLO *   FAIR      73  63  68 NE7       30.03
OELWEIN *      FAIR      72  61  68 NE5       30.04
WATERLOO       FAIR      77  60  55 CALM      30.01S
$$

IAZ064-065-067-068-078-222300-
   EAST CENTRAL IOWA

CITY           SKY/WX    TMP DP  RH WIND       PRES   REMARKS
DAVENPORT      FAIR      75  59  57 N7        30.05F
IOWA CITY      PTSUNNY   77  61  57 S5        30.03F
MUSCATINE *    FAIR      79  59  50 NW6       30.03S HX  80
QUAD CITIES    FAIR      76  61  59 CALM      30.02F
$$

IAZ062-063-075>077-085>089-095>099-222300-
   SOUTHEAST IOWA

CITY           SKY/WX    TMP DP  RH WIND       PRES   REMARKS
BURLINGTON     MOSUNNY   78  60  53 CALM      30.02F
FAIRFIELD *    PTSUNNY   81  61  50 CALM      30.01F HX  81
FORT MADISON * MOSUNNY   81  61  50 CALM      30.02F HX  81
KEOKUK *       MOSUNNY   81  61  50 E6        30.01F HX  81
OSKALOOSA *    FAIR      80  60  50 CALM      30.02S HX  80
CENTERVILLE *    N/A     82  63  51 CALM      30.03  HX  83
OTTUMWA        CLOUDY    80  61  52 VRB3      30.02R HX  81
WASHINGTON *   PTSUNNY   79  61  53 CALM      30.03F HX  80
$$

ABBREVIATIONS USED IN REMARKS
   TC - TEMPERATURES IN CELSIUS
  WCI - WIND CHILL INDEX
   HX - HEAT INDEX
  VSB - VISIBILITY
$$





USA.gov is the U.S. government's official web portal to all federal, state and local government web resources and services.